30/04/2024 05:15:00,0.356
30/04/2024 05:30:00,0.356
30/04/2024 05:45:00,0.355
30/04/2024 06:00:00,0.356
30/04/2024 06:15:00,0.358
30/04/2024 06:30:00,0.357
30/04/2024 06:45:00,0.357
30/04/2024 07:00:00,0.357
30/04/2024 07:15:00,0.356
30/04/2024 07:30:00,0.357
30/04/2024 07:45:00,0.359
30/04/2024 08:00:00,0.356
30/04/2024 08:15:00,0.357
30/04/2024 08:30:00,0.357
30/04/2024 08:45:00,0.359
30/04/2024 09:00:00,0.356
30/04/2024 09:15:00,0.356
30/04/2024 09:30:00,0.357
30/04/2024 09:45:00,0.355
30/04/2024 10:00:00,0.351
30/04/2024 10:15:00,0.358
30/04/2024 10:30:00,0.36
30/04/2024 10:45:00,0.352
30/04/2024 11:00:00,0.352
30/04/2024 11:15:00,0.361
30/04/2024 11:30:00,0.345
30/04/2024 11:45:00,0.363
30/04/2024 12:00:00,0.357
30/04/2024 12:15:00,0.357
30/04/2024 12:30:00,0.355
30/04/2024 12:45:00,0.361
30/04/2024 13:00:00,0.353
30/04/2024 13:15:00,0.354
30/04/2024 13:30:00,0.357
30/04/2024 13:45:00,0.356
30/04/2024 14:00:00,0.353
30/04/2024 14:15:00,0.353
30/04/2024 14:30:00,0.355
30/04/2024 14:45:00,0.356
30/04/2024 15:00:00,0.355
30/04/2024 15:15:00,0.356
30/04/2024 15:30:00,0.355
30/04/2024 15:45:00,0.355
30/04/2024 16:00:00,0.359
30/04/2024 16:15:00,0.357
30/04/2024 16:30:00,0.356
30/04/2024 16:45:00,0.356
30/04/2024 17:00:00,0.354
30/04/2024 17:15:00,0.357
30/04/2024 17:30:00,0.358
30/04/2024 17:45:00,0.359
30/04/2024 18:00:00,0.359
30/04/2024 18:15:00,0.358
30/04/2024 18:30:00,0.357
30/04/2024 18:45:00,0.359
30/04/2024 19:00:00,0.361
30/04/2024 19:15:00,0.36
30/04/2024 19:30:00,0.359
30/04/2024 19:45:00,0.358
30/04/2024 20:00:00,0.361
30/04/2024 20:15:00,0.361
30/04/2024 20:30:00,0.359
30/04/2024 20:45:00,0.361
30/04/2024 21:00:00,0.362
30/04/2024 21:15:00,0.363
30/04/2024 21:30:00,0.358
30/04/2024 21:45:00,0.357
30/04/2024 22:00:00,0.357
30/04/2024 22:15:00,0.356
30/04/2024 22:30:00,0.356
30/04/2024 22:45:00,0.357
30/04/2024 23:00:00,0.356
30/04/2024 23:15:00,0.356
30/04/2024 23:30:00,0.356
30/04/2024 23:45:00,0.358
01/05/2024 00:00:00,0.357
01/05/2024 00:15:00,0.358
01/05/2024 00:30:00,0.356
01/05/2024 00:45:00,0.356
01/05/2024 01:00:00,0.356
01/05/2024 01:15:00,0.356
01/05/2024 01:30:00,0.355
01/05/2024 01:45:00,0.356
01/05/2024 02:00:00,0.354
01/05/2024 02:15:00,0.353
01/05/2024 02:30:00,0.354
01/05/2024 02:45:00,0.355
01/05/2024 03:00:00,0.354
01/05/2024 03:15:00,0.355
01/05/2024 03:30:00,0.353
01/05/2024 03:45:00,0.354
01/05/2024 04:00:00,0.352
01/05/2024 04:15:00,0.355
01/05/2024 04:30:00,0.353
01/05/2024 04:45:00,0.354
01/05/2024 05:00:00,0.354
01/05/2024 05:15:00,0.355
01/05/2024 05:30:00,0.353
01/05/2024 05:45:00,0.352
01/05/2024 06:00:00,0.352
01/05/2024 06:15:00,0.354
01/05/2024 06:30:00,0.356
01/05/2024 06:45:00,0.352
01/05/2024 07:00:00,0.352
01/05/2024 07:15:00,0.351
01/05/2024 07:30:00,0.352
01/05/2024 07:45:00,0.351
01/05/2024 08:00:00,0.352
01/05/2024 08:15:00,0.35
01/05/2024 08:30:00,0.35
01/05/2024 08:45:00,0.35
01/05/2024 09:00:00,0.351
01/05/2024 09:15:00,0.347
01/05/2024 09:30:00,0.346
01/05/2024 09:45:00,0.348
01/05/2024 10:00:00,0.352
01/05/2024 10:15:00,0.35
01/05/2024 10:30:00,0.349
01/05/2024 10:45:00,0.344
01/05/2024 11:00:00,0.341
01/05/2024 11:15:00,0.364
01/05/2024 11:30:00,0.347
01/05/2024 11:45:00,0.358
01/05/2024 12:00:00,0.352
01/05/2024 12:15:00,0.357
01/05/2024 12:30:00,0.352
01/05/2024 12:45:00,0.353
01/05/2024 13:00:00,0.352
01/05/2024 13:15:00,0.349
01/05/2024 13:30:00,0.352
01/05/2024 13:45:00,0.354
01/05/2024 14:00:00,0.342
01/05/2024 14:15:00,0.35
01/05/2024 14:30:00,0.356
01/05/2024 14:45:00,0.351
01/05/2024 15:00:00,0.351
01/05/2024 15:15:00,0.354
01/05/2024 15:30:00,0.357
01/05/2024 15:45:00,0.346
01/05/2024 16:00:00,0.356
01/05/2024 16:15:00,0.348
01/05/2024 16:30:00,0.352
01/05/2024 16:45:00,0.352
01/05/2024 17:00:00,0.356
01/05/2024 17:15:00,0.354
01/05/2024 17:30:00,0.354
01/05/2024 17:45:00,0.354
01/05/2024 18:00:00,0.355
01/05/2024 18:15:00,0.351
01/05/2024 18:30:00,0.352
01/05/2024 18:45:00,0.351
01/05/2024 19:00:00,0.35
01/05/2024 19:15:00,0.356
01/05/2024 19:30:00,0.351
01/05/2024 19:45:00,0.351
01/05/2024 20:00:00,0.351
01/05/2024 20:15:00,0.35
01/05/2024 20:30:00,0.352
01/05/2024 20:45:00,0.351
01/05/2024 21:00:00,0.35
01/05/2024 21:15:00,0.351
01/05/2024 21:30:00,0.351
01/05/2024 21:45:00,0.352
01/05/2024 22:00:00,0.349
01/05/2024 22:15:00,0.35
01/05/2024 22:30:00,0.351
01/05/2024 22:45:00,0.35
01/05/2024 23:00:00,0.35
01/05/2024 23:15:00,0.35
01/05/2024 23:30:00,0.349
01/05/2024 23:45:00,0.35
02/05/2024 00:00:00,0.349
02/05/2024 00:15:00,0.352
02/05/2024 00:30:00,0.352
02/05/2024 00:45:00,0.35
02/05/2024 01:00:00,0.349
02/05/2024 01:15:00,0.35
02/05/2024 01:30:00,0.355
02/05/2024 01:45:00,0.354
02/05/2024 02:00:00,0.353
02/05/2024 02:15:00,0.35
02/05/2024 02:30:00,0.349
02/05/2024 02:45:00,0.349
02/05/2024 03:00:00,0.349
02/05/2024 03:15:00,0.349
02/05/2024 03:30:00,0.349
02/05/2024 03:45:00,0.35
02/05/2024 04:00:00,0.35
02/05/2024 04:15:00,0.351
02/05/2024 04:30:00,0.35
02/05/2024 04:45:00,0.348
02/05/2024 05:00:00,0.347
02/05/2024 05:15:00,0.348
02/05/2024 05:30:00,0.347
02/05/2024 05:45:00,0.345
02/05/2024 06:00:00,0.345
02/05/2024 06:15:00,0.346
02/05/2024 06:30:00,0.346
02/05/2024 06:45:00,0.346
02/05/2024 07:00:00,0.346
02/05/2024 07:15:00,0.346
02/05/2024 07:30:00,0.348
02/05/2024 07:45:00,0.347
02/05/2024 08:00:00,0.348
02/05/2024 08:15:00,0.352
02/05/2024 08:30:00,0.348
02/05/2024 08:45:00,0.349
02/05/2024 09:00:00,0.349
02/05/2024 09:15:00,0.34
02/05/2024 09:30:00,0.344
02/05/2024 09:45:00,0.348
02/05/2024 10:00:00,0.347
02/05/2024 10:15:00,0.348
02/05/2024 10:30:00,0.35
02/05/2024 10:45:00,0.35
02/05/2024 11:00:00,0.353
02/05/2024 11:15:00,0.351
02/05/2024 11:30:00,0.348
02/05/2024 11:45:00,0.351
02/05/2024 12:00:00,0.351
02/05/2024 12:15:00,0.351
02/05/2024 12:30:00,0.347
02/05/2024 12:45:00,0.348
02/05/2024 13:00:00,0.347
02/05/2024 13:15:00,0.351
02/05/2024 13:30:00,0.351
02/05/2024 13:45:00,0.352
02/05/2024 14:00:00,0.352
02/05/2024 14:15:00,0.353
02/05/2024 14:30:00,0.353
02/05/2024 14:45:00,0.354
02/05/2024 15:00:00,0.354
02/05/2024 15:15:00,0.354
02/05/2024 15:30:00,0.356
02/05/2024 15:45:00,0.353
02/05/2024 16:00:00,0.356
02/05/2024 16:15:00,0.353
02/05/2024 16:30:00,0.353
02/05/2024 16:45:00,0.357
02/05/2024 17:00:00,0.355
02/05/2024 17:15:00,0.354
02/05/2024 17:30:00,0.354
02/05/2024 17:45:00,0.355
02/05/2024 18:00:00,0.354
02/05/2024 18:15:00,0.355
02/05/2024 18:30:00,0.355
02/05/2024 18:45:00,0.357
02/05/2024 19:00:00,0.356
02/05/2024 19:15:00,0.356
02/05/2024 19:30:00,0.356
02/05/2024 19:45:00,0.356
02/05/2024 20:00:00,0.355
02/05/2024 20:15:00,0.356
02/05/2024 20:30:00,0.355
02/05/2024 20:45:00,0.355
02/05/2024 21:00:00,0.355
02/05/2024 21:15:00,0.354
02/05/2024 21:30:00,0.355
02/05/2024 21:45:00,0.353
02/05/2024 22:00:00,0.355
02/05/2024 22:15:00,0.355
02/05/2024 22:30:00,0.352
02/05/2024 22:45:00,0.353
02/05/2024 23:00:00,0.353
02/05/2024 23:15:00,0.351
02/05/2024 23:30:00,0.351
02/05/2024 23:45:00,0.353
03/05/2024 00:00:00,0.354
03/05/2024 00:15:00,0.353
03/05/2024 00:30:00,0.354
03/05/2024 00:45:00,0.355
03/05/2024 01:00:00,0.355
03/05/2024 01:15:00,0.354
03/05/2024 01:30:00,0.354
03/05/2024 01:45:00,0.354
03/05/2024 02:00:00,0.354
03/05/2024 02:15:00,0.352
03/05/2024 02:30:00,0.354
03/05/2024 02:45:00,0.35
03/05/2024 03:00:00,0.35
03/05/2024 03:15:00,0.352
03/05/2024 03:30:00,0.35
03/05/2024 03:45:00,0.352
03/05/2024 04:00:00,0.354
03/05/2024 04:15:00,0.352
03/05/2024 04:30:00,0.352
03/05/2024 04:45:00,0.353
03/05/2024 05:00:00,0.351
03/05/2024 05:15:00,0.35
03/05/2024 05:30:00,0.35
03/05/2024 05:45:00,0.35
03/05/2024 06:00:00,0.351
03/05/2024 06:15:00,0.351
03/05/2024 06:30:00,0.348
03/05/2024 06:45:00,0.35
03/05/2024 07:00:00,0.35
03/05/2024 07:15:00,0.35
03/05/2024 07:30:00,0.349
03/05/2024 07:45:00,0.348
03/05/2024 08:00:00,0.348
03/05/2024 08:15:00,0.349
03/05/2024 08:30:00,0.349
03/05/2024 08:45:00,0.349
03/05/2024 09:00:00,0.351
03/05/2024 09:15:00,0.346
03/05/2024 09:30:00,0.35
03/05/2024 09:45:00,0.349
03/05/2024 10:00:00,0.344
03/05/2024 10:15:00,0.347
03/05/2024 10:30:00,0.352
03/05/2024 10:45:00,0.347
03/05/2024 11:00:00,0.346
03/05/2024 11:15:00,0.343
03/05/2024 11:30:00,0.354
03/05/2024 11:45:00,0.34
03/05/2024 12:00:00,0.343
03/05/2024 12:15:00,0.349
03/05/2024 12:30:00,0.348
03/05/2024 12:45:00,0.348
03/05/2024 13:00:00,0.355
03/05/2024 13:15:00,0.352
03/05/2024 13:30:00,0.352
03/05/2024 13:45:00,0.354
03/05/2024 14:00:00,0.35
03/05/2024 14:15:00,0.349
03/05/2024 14:30:00,0.353
03/05/2024 14:45:00,0.354
03/05/2024 15:00:00,0.354
03/05/2024 15:15:00,0.352
03/05/2024 15:30:00,0.352
03/05/2024 15:45:00,0.351
03/05/2024 16:00:00,0.354
03/05/2024 16:15:00,0.355
03/05/2024 16:30:00,0.354
03/05/2024 16:45:00,0.353
03/05/2024 17:00:00,0.352
03/05/2024 17:15:00,0.352
03/05/2024 17:30:00,0.352
03/05/2024 17:45:00,0.354
03/05/2024 18:00:00,0.355
03/05/2024 18:15:00,0.354
03/05/2024 18:30:00,0.353
03/05/2024 18:45:00,0.354
03/05/2024 19:00:00,0.354
03/05/2024 19:15:00,0.356
03/05/2024 19:30:00,0.354
03/05/2024 19:45:00,0.356
03/05/2024 20:00:00,0.355
03/05/2024 20:15:00,0.356
03/05/2024 20:30:00,0.356
03/05/2024 20:45:00,0.356
03/05/2024 21:00:00,0.357
03/05/2024 21:15:00,0.356
03/05/2024 21:30:00,0.355
03/05/2024 21:45:00,0.353
03/05/2024 22:00:00,0.355
03/05/2024 22:15:00,0.354
03/05/2024 22:30:00,0.355
03/05/2024 22:45:00,0.355
03/05/2024 23:00:00,0.355
03/05/2024 23:15:00,0.356
03/05/2024 23:30:00,0.355
03/05/2024 23:45:00,0.356
04/05/2024 00:00:00,0.357
04/05/2024 00:15:00,0.356
04/05/2024 00:30:00,0.356
04/05/2024 00:45:00,0.357
04/05/2024 01:00:00,0.356
04/05/2024 01:15:00,0.356
04/05/2024 01:30:00,0.356
04/05/2024 01:45:00,0.357
04/05/2024 02:00:00,0.356
04/05/2024 02:15:00,0.357
04/05/2024 02:30:00,0.357
04/05/2024 02:45:00,0.356
04/05/2024 03:00:00,0.357
04/05/2024 03:15:00,0.356
04/05/2024 03:30:00,0.356
04/05/2024 03:45:00,0.356
04/05/2024 04:00:00,0.356
04/05/2024 04:15:00,0.356
04/05/2024 04:30:00,0.357
04/05/2024 04:45:00,0.357
04/05/2024 05:00:00,0.357
04/05/2024 05:15:00,0.357
04/05/2024 05:30:00,0.356
04/05/2024 05:45:00,0.356
04/05/2024 06:00:00,0.356
04/05/2024 06:15:00,0.356
04/05/2024 06:30:00,0.356
04/05/2024 06:45:00,0.356
04/05/2024 07:00:00,0.356
04/05/2024 07:15:00,0.356
04/05/2024 07:30:00,0.355
04/05/2024 07:45:00,0.354
04/05/2024 08:00:00,0.356
04/05/2024 08:15:00,0.355
04/05/2024 08:30:00,0.354
04/05/2024 08:45:00,0.354
04/05/2024 09:00:00,0.352
04/05/2024 09:15:00,0.355
04/05/2024 09:30:00,0.355
04/05/2024 09:45:00,0.353
04/05/2024 10:00:00,0.355
04/05/2024 10:15:00,0.354
04/05/2024 10:30:00,0.354
04/05/2024 10:45:00,0.354
04/05/2024 11:00:00,0.355
04/05/2024 11:15:00,0.356
04/05/2024 11:30:00,0.355
04/05/2024 11:45:00,0.355
04/05/2024 12:00:00,0.355
04/05/2024 12:15:00,0.354
04/05/2024 12:30:00,0.356
04/05/2024 12:45:00,0.356
04/05/2024 13:00:00,0.355
04/05/2024 13:15:00,0.355
04/05/2024 13:30:00,0.354
04/05/2024 13:45:00,0.356
04/05/2024 14:00:00,0.356
04/05/2024 14:15:00,0.356
04/05/2024 14:30:00,0.356
04/05/2024 14:45:00,0.356
04/05/2024 15:00:00,0.356
04/05/2024 15:15:00,0.356
04/05/2024 15:30:00,0.355
04/05/2024 15:45:00,0.356
04/05/2024 16:00:00,0.356
04/05/2024 16:15:00,0.356
04/05/2024 16:30:00,0.357
04/05/2024 16:45:00,0.357
04/05/2024 17:00:00,0.356
04/05/2024 17:15:00,0.357
04/05/2024 17:30:00,0.358
04/05/2024 17:45:00,0.357
04/05/2024 18:00:00,0.357
04/05/2024 18:15:00,0.358
04/05/2024 18:30:00,0.358
04/05/2024 18:45:00,0.357
04/05/2024 19:00:00,0.357
04/05/2024 19:15:00,0.357
04/05/2024 19:30:00,0.357
04/05/2024 19:45:00,0.357
04/05/2024 20:00:00,0.357
04/05/2024 20:15:00,0.357
04/05/2024 20:30:00,0.357
04/05/2024 20:45:00,0.357
04/05/2024 21:00:00,0.357
04/05/2024 21:15:00,0.356
04/05/2024 21:30:00,0.356
04/05/2024 21:45:00,0.356
04/05/2024 22:00:00,0.357
04/05/2024 22:15:00,0.357
04/05/2024 22:30:00,0.357
04/05/2024 22:45:00,0.356
04/05/2024 23:00:00,0.356
04/05/2024 23:15:00,0.356
04/05/2024 23:30:00,0.356
04/05/2024 23:45:00,0.356
05/05/2024 00:00:00,0.356
05/05/2024 00:15:00,0.356
05/05/2024 00:30:00,0.356
05/05/2024 00:45:00,0.356
05/05/2024 01:00:00,0.356
05/05/2024 01:15:00,0.356
05/05/2024 01:30:00,0.356
05/05/2024 01:45:00,0.356
05/05/2024 02:00:00,0.356
05/05/2024 02:15:00,0.356
05/05/2024 02:30:00,0.356
05/05/2024 02:45:00,0.356
05/05/2024 03:00:00,0.356
05/05/2024 03:15:00,0.356
